Year,Month,Day,Hour,Minute,Value (Times are PST for temperature in C)
2017,06,24,00,00,22.10
2017,06,24,00,01,22.10
2017,06,24,00,02,22.20
2017,06,24,00,03,22.20
2017,06,24,00,04,22.20
2017,06,24,00,05,22.20
2017,06,24,00,06,22.20
2017,06,24,00,07,22.20
2017,06,24,00,08,22.20
2017,06,24,00,09,22.20
2017,06,24,00,10,22.20
2017,06,24,00,11,22.20
2017,06,24,00,12,22.20
2017,06,24,00,13,22.20
2017,06,24,00,14,22.20
2017,06,24,00,15,22.20
2017,06,24,00,16,22.20
2017,06,24,00,17,22.20
2017,06,24,00,18,22.10
2017,06,24,00,19,22.10
2017,06,24,00,20,22.10
2017,06,24,00,21,22.10
2017,06,24,00,22,22.10
2017,06,24,00,23,22.10
2017,06,24,00,24,22.10
2017,06,24,00,25,22.10
2017,06,24,00,26,22.00
2017,06,24,00,27,22.00
2017,06,24,00,28,22.00
2017,06,24,00,29,22.00
2017,06,24,00,30,22.00
2017,06,24,00,31,21.90
2017,06,24,00,32,21.90
2017,06,24,00,33,21.90
2017,06,24,00,34,21.90
2017,06,24,00,35,21.80
2017,06,24,00,36,21.80
2017,06,24,00,37,21.80
2017,06,24,00,38,21.70
2017,06,24,00,39,21.70
2017,06,24,00,40,21.70
2017,06,24,00,41,21.60
2017,06,24,00,42,21.60
2017,06,24,00,43,21.50
2017,06,24,00,44,21.50
2017,06,24,00,45,21.40
2017,06,24,00,46,21.40
2017,06,24,00,47,21.30
2017,06,24,00,48,21.30
2017,06,24,00,49,21.20
2017,06,24,00,50,21.20
2017,06,24,00,51,21.10
2017,06,24,00,52,21.10
2017,06,24,00,53,21.00
2017,06,24,00,54,20.90
2017,06,24,00,55,20.90
2017,06,24,00,56,20.90
2017,06,24,00,57,20.80
2017,06,24,00,58,20.80
2017,06,24,00,59,20.80
2017,06,24,01,00,20.80
2017,06,24,01,01,20.80
2017,06,24,01,02,20.80
2017,06,24,01,03,20.80
2017,06,24,01,04,20.80
2017,06,24,01,05,20.80
2017,06,24,01,06,20.80
2017,06,24,01,07,20.80
2017,06,24,01,08,20.80
2017,06,24,01,09,20.80
2017,06,24,01,10,20.80
2017,06,24,01,11,20.80
2017,06,24,01,12,20.90
2017,06,24,01,13,20.90
2017,06,24,01,14,20.90
2017,06,24,01,15,20.90
2017,06,24,01,16,20.90
2017,06,24,01,17,20.90
2017,06,24,01,18,20.80
2017,06,24,01,19,20.80
2017,06,24,01,20,20.80
2017,06,24,01,21,20.80
2017,06,24,01,22,20.80
2017,06,24,01,23,20.70
2017,06,24,01,24,20.70
2017,06,24,01,25,20.70
2017,06,24,01,26,20.70
2017,06,24,01,27,20.60
2017,06,24,01,28,20.60
2017,06,24,01,29,20.50
2017,06,24,01,30,20.40
2017,06,24,01,31,20.30
2017,06,24,01,32,20.30
2017,06,24,01,33,20.30
2017,06,24,01,34,20.20
2017,06,24,01,35,20.20
2017,06,24,01,36,20.20
2017,06,24,01,37,20.10
2017,06,24,01,38,20.10
2017,06,24,01,39,20.10
2017,06,24,01,40,20.10
2017,06,24,01,41,20.10
2017,06,24,01,42,20.10
2017,06,24,01,43,20.20
2017,06,24,01,44,20.20
2017,06,24,01,45,20.30
2017,06,24,01,46,20.30
2017,06,24,01,47,20.30
2017,06,24,01,48,20.40
2017,06,24,01,49,20.40
2017,06,24,01,50,20.40
2017,06,24,01,51,20.40
2017,06,24,01,52,20.40
2017,06,24,01,53,20.40
2017,06,24,01,54,20.40
2017,06,24,01,55,20.40
2017,06,24,01,56,20.40
2017,06,24,01,57,20.40
2017,06,24,01,58,20.40
2017,06,24,01,59,20.40
2017,06,24,02,00,20.40
2017,06,24,02,01,20.40
2017,06,24,02,02,20.40
2017,06,24,02,03,20.30
2017,06,24,02,04,20.30
2017,06,24,02,05,20.30
2017,06,24,02,06,20.30
2017,06,24,02,07,20.30
2017,06,24,02,08,20.30
2017,06,24,02,09,20.30
2017,06,24,02,10,20.30
2017,06,24,02,11,20.30
2017,06,24,02,12,20.30
2017,06,24,02,13,20.30
2017,06,24,02,14,20.30
2017,06,24,02,15,20.30
2017,06,24,02,16,20.30
2017,06,24,02,17,20.30
2017,06,24,02,18,20.30
2017,06,24,02,19,20.30
2017,06,24,02,20,20.30
2017,06,24,02,21,20.30
2017,06,24,02,22,20.30
2017,06,24,02,23,20.40
2017,06,24,02,24,20.40
2017,06,24,02,25,20.40
2017,06,24,02,26,20.40
2017,06,24,02,27,20.40
2017,06,24,02,28,20.40
2017,06,24,02,29,20.50
2017,06,24,02,30,20.60
2017,06,24,02,31,20.60
2017,06,24,02,32,20.60
2017,06,24,02,33,20.60
2017,06,24,02,34,20.60
2017,06,24,02,35,20.70
2017,06,24,02,36,20.70
2017,06,24,02,37,20.80
2017,06,24,02,38,20.80
2017,06,24,02,39,20.80
2017,06,24,02,40,20.80
2017,06,24,02,41,20.90
2017,06,24,02,42,20.90
2017,06,24,02,43,20.90
2017,06,24,02,44,20.90
2017,06,24,02,45,20.90
2017,06,24,02,46,20.90
2017,06,24,02,47,20.80
2017,06,24,02,48,20.80
2017,06,24,02,49,20.80
2017,06,24,02,50,20.80
2017,06,24,02,51,20.80
2017,06,24,02,52,20.80
2017,06,24,02,53,20.80
2017,06,24,02,54,20.80
2017,06,24,02,55,20.80
2017,06,24,02,56,20.70
2017,06,24,02,57,20.70
2017,06,24,02,58,20.60
2017,06,24,02,59,20.60
2017,06,24,03,00,20.50
2017,06,24,03,01,20.50
2017,06,24,03,02,20.40
2017,06,24,03,03,20.40
2017,06,24,03,04,20.40
2017,06,24,03,05,20.40
2017,06,24,03,06,20.40
2017,06,24,03,07,20.40
2017,06,24,03,08,20.40
2017,06,24,03,09,20.30
2017,06,24,03,10,20.30
2017,06,24,03,11,20.30
2017,06,24,03,12,20.20
2017,06,24,03,13,20.20
2017,06,24,03,14,20.10
2017,06,24,03,15,20.10
2017,06,24,03,16,20.10
2017,06,24,03,17,20.00
2017,06,24,03,18,20.00
2017,06,24,03,19,19.90
2017,06,24,03,20,19.90
2017,06,24,03,21,19.90
2017,06,24,03,22,19.80
2017,06,24,03,23,19.80
2017,06,24,03,24,19.70
2017,06,24,03,25,19.70
2017,06,24,03,26,19.60
2017,06,24,03,27,19.60
2017,06,24,03,28,19.50
2017,06,24,03,29,19.50
2017,06,24,03,30,19.40
2017,06,24,03,31,19.40
2017,06,24,03,32,19.40
2017,06,24,03,33,19.30
2017,06,24,03,34,19.30
2017,06,24,03,35,19.30
2017,06,24,03,36,19.30
2017,06,24,03,37,19.20
2017,06,24,03,38,19.20
2017,06,24,03,39,19.20
2017,06,24,03,40,19.20
2017,06,24,03,41,19.20
2017,06,24,03,42,19.20
2017,06,24,03,43,19.20
2017,06,24,03,44,19.30
2017,06,24,03,45,19.40
2017,06,24,03,46,19.50
2017,06,24,03,47,19.50
2017,06,24,03,48,19.60
2017,06,24,03,49,19.60
2017,06,24,03,50,19.70
2017,06,24,03,51,19.70
2017,06,24,03,52,19.70
2017,06,24,03,53,19.80
2017,06,24,03,54,19.80
2017,06,24,03,55,19.80
2017,06,24,03,56,19.80
2017,06,24,03,57,19.80
2017,06,24,03,58,19.90
2017,06,24,03,59,19.90
2017,06,24,04,00,19.90
2017,06,24,04,01,19.90
2017,06,24,04,02,19.90
2017,06,24,04,03,19.90
2017,06,24,04,04,19.90
2017,06,24,04,05,19.80
2017,06,24,04,06,19.80
2017,06,24,04,07,19.80
2017,06,24,04,08,19.70
2017,06,24,04,09,19.70
2017,06,24,04,10,19.60
2017,06,24,04,11,19.50
2017,06,24,04,12,19.40
2017,06,24,04,13,19.30
2017,06,24,04,14,19.30
2017,06,24,04,15,19.20
2017,06,24,04,16,19.10
2017,06,24,04,17,19.10
2017,06,24,04,18,19.00
2017,06,24,04,19,18.90
2017,06,24,04,20,18.90
2017,06,24,04,21,18.80
2017,06,24,04,22,18.80
2017,06,24,04,23,18.70
2017,06,24,04,24,18.70
2017,06,24,04,25,18.60
2017,06,24,04,26,18.60
2017,06,24,04,27,18.60
2017,06,24,04,28,18.50
2017,06,24,04,29,18.50
2017,06,24,04,30,18.50
2017,06,24,04,31,18.40
2017,06,24,04,32,18.40
2017,06,24,04,33,18.40
2017,06,24,04,34,18.40
2017,06,24,04,35,18.40
2017,06,24,04,36,18.40
2017,06,24,04,37,18.40
2017,06,24,04,38,18.40
2017,06,24,04,39,18.40
2017,06,24,04,40,18.40
2017,06,24,04,41,18.40
2017,06,24,04,42,18.40
2017,06,24,04,43,18.40
2017,06,24,04,44,18.40
2017,06,24,04,45,18.40
2017,06,24,04,46,18.50
2017,06,24,04,47,18.50
2017,06,24,04,48,18.50
2017,06,24,04,49,18.50
2017,06,24,04,50,18.50
2017,06,24,04,51,18.50
2017,06,24,04,52,18.60
2017,06,24,04,53,18.60
2017,06,24,04,54,18.60
2017,06,24,04,55,18.60
2017,06,24,04,56,18.60
2017,06,24,04,57,18.70
2017,06,24,04,58,18.70
2017,06,24,04,59,18.70
2017,06,24,05,00,18.70
2017,06,24,05,01,18.70
2017,06,24,05,02,18.70
2017,06,24,05,03,18.60
2017,06,24,05,04,18.60
2017,06,24,05,05,18.60
2017,06,24,05,06,18.60
2017,06,24,05,07,18.60
2017,06,24,05,08,18.50
2017,06,24,05,09,18.50
2017,06,24,05,10,18.50
2017,06,24,05,11,18.50
2017,06,24,05,12,18.40
2017,06,24,05,13,18.40
2017,06,24,05,14,18.40
2017,06,24,05,15,18.30
2017,06,24,05,16,18.30
2017,06,24,05,17,18.30
2017,06,24,05,18,18.30
2017,06,24,05,19,18.30
2017,06,24,05,20,18.20
2017,06,24,05,21,18.20
2017,06,24,05,22,18.20
2017,06,24,05,23,18.20
2017,06,24,05,24,18.20
2017,06,24,05,25,18.20
2017,06,24,05,26,18.20
2017,06,24,05,27,18.20
2017,06,24,05,28,18.20
2017,06,24,05,29,18.20
2017,06,24,05,30,18.20
2017,06,24,05,31,18.20
2017,06,24,05,32,18.20
2017,06,24,05,33,18.20
2017,06,24,05,34,18.20
2017,06,24,05,35,18.10
2017,06,24,05,36,18.10
2017,06,24,05,37,18.10
2017,06,24,05,38,18.10
2017,06,24,05,39,18.10
2017,06,24,05,40,18.10
2017,06,24,05,41,18.10
2017,06,24,05,42,18.10
2017,06,24,05,43,18.10
2017,06,24,05,44,18.10
2017,06,24,05,45,18.10
2017,06,24,05,46,18.10
2017,06,24,05,47,18.10
2017,06,24,05,48,18.10
2017,06,24,05,49,18.00
2017,06,24,05,50,18.00
2017,06,24,05,51,18.00
2017,06,24,05,52,18.00
2017,06,24,05,53,17.90
2017,06,24,05,54,17.90
2017,06,24,05,55,17.90
2017,06,24,05,56,17.90
2017,06,24,05,57,18.00
2017,06,24,05,58,18.00
2017,06,24,05,59,18.10
2017,06,24,06,00,18.10
2017,06,24,06,01,18.10
2017,06,24,06,02,18.20
2017,06,24,06,03,18.20
2017,06,24,06,04,18.20
2017,06,24,06,05,18.30
2017,06,24,06,06,18.30
2017,06,24,06,07,18.40
2017,06,24,06,08,18.40
2017,06,24,06,09,18.50
2017,06,24,06,10,18.50
2017,06,24,06,11,18.60
2017,06,24,06,12,18.60
2017,06,24,06,13,18.70
2017,06,24,06,14,18.70
2017,06,24,06,15,18.70
2017,06,24,06,16,18.70
2017,06,24,06,17,18.70
2017,06,24,06,18,18.70
2017,06,24,06,19,18.70
2017,06,24,06,20,18.70
2017,06,24,06,21,18.70
2017,06,24,06,22,18.70
2017,06,24,06,23,18.70
2017,06,24,06,24,18.70
2017,06,24,06,25,18.80
2017,06,24,06,26,18.80
2017,06,24,06,27,18.80
2017,06,24,06,28,18.80
2017,06,24,06,29,18.80
2017,06,24,06,30,18.80
2017,06,24,06,31,18.80
2017,06,24,06,32,18.80
2017,06,24,06,33,18.80
2017,06,24,06,34,18.80
2017,06,24,06,35,18.90
2017,06,24,06,36,18.90
2017,06,24,06,37,18.90
2017,06,24,06,38,18.90
2017,06,24,06,39,18.90
2017,06,24,06,40,18.90
2017,06,24,06,41,19.00
2017,06,24,06,42,19.00
2017,06,24,06,43,19.10
2017,06,24,06,44,19.10
2017,06,24,06,45,19.10
2017,06,24,06,46,19.20
2017,06,24,06,47,19.20
2017,06,24,06,48,19.20
2017,06,24,06,49,19.20
2017,06,24,06,50,19.20
2017,06,24,06,51,19.30
2017,06,24,06,52,19.30
2017,06,24,06,53,19.30
2017,06,24,06,54,19.40
2017,06,24,06,55,19.40
2017,06,24,06,56,19.40
2017,06,24,06,57,19.40
2017,06,24,06,58,19.40
2017,06,24,06,59,19.50
2017,06,24,07,00,19.50
2017,06,24,07,01,19.60
2017,06,24,07,02,19.60
2017,06,24,07,03,19.60
2017,06,24,07,04,19.60
2017,06,24,07,05,19.70
2017,06,24,07,06,19.70
2017,06,24,07,07,19.80
2017,06,24,07,08,19.80
2017,06,24,07,09,19.80
2017,06,24,07,10,19.90
2017,06,24,07,11,19.90
2017,06,24,07,12,19.90
2017,06,24,07,13,19.90
2017,06,24,07,14,19.90
2017,06,24,07,15,19.80
2017,06,24,07,16,19.80
2017,06,24,07,17,19.70
2017,06,24,07,18,19.70
2017,06,24,07,19,19.60
2017,06,24,07,20,19.60
2017,06,24,07,21,19.60
2017,06,24,07,22,19.60
2017,06,24,07,23,19.60
2017,06,24,07,24,19.60
2017,06,24,07,25,19.60
2017,06,24,07,26,19.60
2017,06,24,07,27,19.60
2017,06,24,07,28,19.70
2017,06,24,07,29,19.70
2017,06,24,07,30,19.70
2017,06,24,07,31,19.80
2017,06,24,07,32,19.80
2017,06,24,07,33,19.80
2017,06,24,07,34,19.90
2017,06,24,07,35,19.90
2017,06,24,07,36,20.00
2017,06,24,07,37,20.00
2017,06,24,07,38,20.10
2017,06,24,07,39,20.10
2017,06,24,07,40,20.10
2017,06,24,07,41,20.10
2017,06,24,07,42,20.20
2017,06,24,07,43,20.20
2017,06,24,07,44,20.20
2017,06,24,07,45,20.30
2017,06,24,07,46,20.30
2017,06,24,07,47,20.20
2017,06,24,07,48,20.20
2017,06,24,07,49,20.20
2017,06,24,07,50,20.20
2017,06,24,07,51,20.10
2017,06,24,07,52,20.00
2017,06,24,07,53,19.90
2017,06,24,07,54,19.80
2017,06,24,07,55,19.70
2017,06,24,07,56,19.70
2017,06,24,07,57,19.60
2017,06,24,07,58,19.50
2017,06,24,07,59,19.40
2017,06,24,08,00,19.40
2017,06,24,08,01,19.30
2017,06,24,08,02,19.30
2017,06,24,08,03,19.20
2017,06,24,08,04,19.20
2017,06,24,08,05,19.20
2017,06,24,08,06,19.30
2017,06,24,08,07,19.30
2017,06,24,08,08,19.30
2017,06,24,08,09,19.30
2017,06,24,08,10,19.40
2017,06,24,08,11,19.40
2017,06,24,08,12,19.40
2017,06,24,08,13,19.40
2017,06,24,08,14,19.40
2017,06,24,08,15,19.40
2017,06,24,08,16,19.40
2017,06,24,08,17,19.40
2017,06,24,08,18,19.40
2017,06,24,08,19,19.40
2017,06,24,08,20,19.30
2017,06,24,08,21,19.30
2017,06,24,08,22,19.30
2017,06,24,08,23,19.30
2017,06,24,08,24,19.20
2017,06,24,08,25,19.20
2017,06,24,08,26,19.10
2017,06,24,08,27,19.10
2017,06,24,08,28,19.10
2017,06,24,08,29,19.10
2017,06,24,08,30,19.10
2017,06,24,08,31,19.10
2017,06,24,08,32,19.00
2017,06,24,08,33,19.00
2017,06,24,08,34,19.00
2017,06,24,08,35,19.00
2017,06,24,08,36,18.90
2017,06,24,08,37,18.90
2017,06,24,08,38,18.90
2017,06,24,08,39,19.00
2017,06,24,08,40,19.00
2017,06,24,08,41,19.00
2017,06,24,08,42,19.10
2017,06,24,08,43,19.10
2017,06,24,08,44,19.10
2017,06,24,08,45,19.10
2017,06,24,08,46,19.20
2017,06,24,08,47,19.20
2017,06,24,08,48,19.20
2017,06,24,08,49,19.20
2017,06,24,08,50,19.20
2017,06,24,08,51,19.20
2017,06,24,08,52,19.20
2017,06,24,08,53,19.20
2017,06,24,08,54,19.20
2017,06,24,08,55,19.20
2017,06,24,08,56,19.10
2017,06,24,08,57,19.10
2017,06,24,08,58,19.00
2017,06,24,08,59,18.90
2017,06,24,09,00,18.90
2017,06,24,09,01,18.80
2017,06,24,09,02,18.80
2017,06,24,09,03,18.80
2017,06,24,09,04,18.70
2017,06,24,09,05,18.70
2017,06,24,09,06,18.70
2017,06,24,09,07,18.80
2017,06,24,09,08,18.80
2017,06,24,09,09,18.80
2017,06,24,09,10,18.70
2017,06,24,09,11,18.70
2017,06,24,09,12,18.70
2017,06,24,09,13,18.70
2017,06,24,09,14,18.70
2017,06,24,09,15,18.70
2017,06,24,09,16,18.70
2017,06,24,09,17,18.70
2017,06,24,09,18,18.70
2017,06,24,09,19,18.70
2017,06,24,09,20,18.70
2017,06,24,09,21,18.60
2017,06,24,09,22,18.60
2017,06,24,09,23,18.60
2017,06,24,09,24,18.70
2017,06,24,09,25,18.70
2017,06,24,09,26,18.80
2017,06,24,09,27,18.80
2017,06,24,09,28,18.90
2017,06,24,09,29,18.90
2017,06,24,09,30,18.90
2017,06,24,09,31,18.80
2017,06,24,09,32,18.80
2017,06,24,09,33,18.80
2017,06,24,09,34,18.80
2017,06,24,09,35,18.70
2017,06,24,09,36,18.70
2017,06,24,09,37,18.70
2017,06,24,09,38,18.70
2017,06,24,09,39,18.70
2017,06,24,09,40,18.70
2017,06,24,09,41,18.70
2017,06,24,09,42,18.70
2017,06,24,09,43,18.70
2017,06,24,09,44,18.70
2017,06,24,09,45,18.80
2017,06,24,09,46,18.80
2017,06,24,09,47,18.80
2017,06,24,09,48,18.80
2017,06,24,09,49,18.90
2017,06,24,09,50,18.90
2017,06,24,09,51,18.90
2017,06,24,09,52,19.00
2017,06,24,09,53,19.00
2017,06,24,09,54,19.10
2017,06,24,09,55,19.10
2017,06,24,09,56,19.20
2017,06,24,09,57,19.20
2017,06,24,09,58,19.20
2017,06,24,09,59,19.30
2017,06,24,10,00,19.30
2017,06,24,10,01,19.40
2017,06,24,10,02,19.50
2017,06,24,10,03,19.60
2017,06,24,10,04,19.70
2017,06,24,10,05,19.70
2017,06,24,10,06,19.80
2017,06,24,10,07,19.80
2017,06,24,10,08,19.90
2017,06,24,10,09,20.00
2017,06,24,10,10,20.10
2017,06,24,10,11,20.10
2017,06,24,10,12,20.10
2017,06,24,10,13,20.10
2017,06,24,10,14,20.00
2017,06,24,10,15,20.00
2017,06,24,10,16,20.00
2017,06,24,10,17,20.00
2017,06,24,10,18,20.00
2017,06,24,10,19,20.00
2017,06,24,10,20,20.00
2017,06,24,10,21,20.00
2017,06,24,10,22,19.90
2017,06,24,10,23,19.90
2017,06,24,10,24,19.90
2017,06,24,10,25,19.90
2017,06,24,10,26,19.90
2017,06,24,10,27,19.90
2017,06,24,10,28,19.90
2017,06,24,10,29,19.90
2017,06,24,10,30,19.90
2017,06,24,10,31,19.90
2017,06,24,10,32,19.90
2017,06,24,10,33,20.00
2017,06,24,10,34,20.00
2017,06,24,10,35,20.10
2017,06,24,10,36,20.10
2017,06,24,10,37,20.20
2017,06,24,10,38,20.30
2017,06,24,10,39,20.40
2017,06,24,10,40,20.50
2017,06,24,10,41,20.50
2017,06,24,10,42,20.60
2017,06,24,10,43,20.60
2017,06,24,10,44,20.60
2017,06,24,10,45,20.60
2017,06,24,10,46,20.60
2017,06,24,10,47,20.60
2017,06,24,10,48,20.60
2017,06,24,10,49,20.60
2017,06,24,10,50,20.60
2017,06,24,10,51,20.60
2017,06,24,10,52,20.60
2017,06,24,10,53,20.60
2017,06,24,10,54,20.60
2017,06,24,10,55,20.60
2017,06,24,10,56,20.60
2017,06,24,10,57,20.70
2017,06,24,10,58,20.70
2017,06,24,10,59,20.70
2017,06,24,11,00,20.60
2017,06,24,11,01,20.60
2017,06,24,11,02,20.60
2017,06,24,11,03,20.70
2017,06,24,11,04,20.70
2017,06,24,11,05,20.70
2017,06,24,11,06,20.70
2017,06,24,11,07,20.70
2017,06,24,11,08,20.80
2017,06,24,11,09,20.80
2017,06,24,11,10,20.90
2017,06,24,11,11,20.90
2017,06,24,11,12,21.00
2017,06,24,11,13,21.10
2017,06,24,11,14,21.10
2017,06,24,11,15,21.10
2017,06,24,11,16,21.20
2017,06,24,11,17,21.20
2017,06,24,11,18,21.20
2017,06,24,11,19,21.20
2017,06,24,11,20,21.20
2017,06,24,11,21,21.20
2017,06,24,11,22,21.20
2017,06,24,11,23,21.20
2017,06,24,11,24,21.20
2017,06,24,11,25,21.20
2017,06,24,11,26,21.20
2017,06,24,11,27,21.20
2017,06,24,11,28,21.20
2017,06,24,11,29,21.20
2017,06,24,11,30,21.20
2017,06,24,11,31,21.20
2017,06,24,11,32,21.30
2017,06,24,11,33,21.30
2017,06,24,11,34,21.40
2017,06,24,11,35,21.50
2017,06,24,11,36,21.60
2017,06,24,11,37,21.70
2017,06,24,11,38,21.80
2017,06,24,11,39,21.80
2017,06,24,11,40,21.80
2017,06,24,11,41,21.80
2017,06,24,11,42,21.90
2017,06,24,11,43,21.90
2017,06,24,11,44,21.90
2017,06,24,11,45,21.80
2017,06,24,11,46,21.80
2017,06,24,11,47,21.70
2017,06,24,11,48,21.70
2017,06,24,11,49,21.70
2017,06,24,11,50,21.70
2017,06,24,11,51,21.70
2017,06,24,11,52,21.70
2017,06,24,11,53,21.70
2017,06,24,11,54,21.60
2017,06,24,11,55,21.60
2017,06,24,11,56,21.60
2017,06,24,11,57,21.60
2017,06,24,11,58,21.70
2017,06,24,11,59,21.70
2017,06,24,12,00,21.70
2017,06,24,12,01,21.70
2017,06,24,12,02,21.70
2017,06,24,12,03,21.80
2017,06,24,12,04,21.80
2017,06,24,12,05,21.80
2017,06,24,12,06,21.90
2017,06,24,12,07,21.90
2017,06,24,12,08,22.00
2017,06,24,12,09,22.00
2017,06,24,12,10,22.10
2017,06,24,12,11,22.10
2017,06,24,12,12,22.10
2017,06,24,12,13,22.20
2017,06,24,12,14,22.20
2017,06,24,12,15,22.30
2017,06,24,12,16,22.30
2017,06,24,12,17,22.30
2017,06,24,12,18,22.30
2017,06,24,12,19,22.40
2017,06,24,12,20,22.40
2017,06,24,12,21,22.40
2017,06,24,12,22,22.40
2017,06,24,12,23,22.40
2017,06,24,12,24,22.40
2017,06,24,12,25,22.50
2017,06,24,12,26,22.50
2017,06,24,12,27,22.60
2017,06,24,12,28,22.60
2017,06,24,12,29,22.60
2017,06,24,12,30,22.70
2017,06,24,12,31,22.70
2017,06,24,12,32,22.70
2017,06,24,12,33,22.70
2017,06,24,12,34,22.80
2017,06,24,12,35,22.80
2017,06,24,12,36,22.80
2017,06,24,12,37,22.80
2017,06,24,12,38,22.80
2017,06,24,12,39,22.80
2017,06,24,12,40,22.90
2017,06,24,12,41,22.90
2017,06,24,12,42,22.90
2017,06,24,12,43,23.00
2017,06,24,12,44,23.00
2017,06,24,12,45,23.00
2017,06,24,12,46,23.10
2017,06,24,12,47,23.10
2017,06,24,12,48,23.10
2017,06,24,12,49,23.20
2017,06,24,12,50,23.20
2017,06,24,12,51,23.20
2017,06,24,12,52,23.30
2017,06,24,12,53,23.30
2017,06,24,12,54,23.30
2017,06,24,12,55,23.30
2017,06,24,12,56,23.30
2017,06,24,12,57,23.30
2017,06,24,12,58,23.30
2017,06,24,12,59,23.30
2017,06,24,13,00,23.30
2017,06,24,13,01,23.30
2017,06,24,13,02,23.30
2017,06,24,13,03,23.30
2017,06,24,13,04,23.30
2017,06,24,13,05,23.30
2017,06,24,13,06,23.40
2017,06,24,13,07,23.40
2017,06,24,13,08,23.50
2017,06,24,13,09,23.50
2017,06,24,13,10,23.60
2017,06,24,13,11,23.70
2017,06,24,13,12,23.80
2017,06,24,13,13,23.80
2017,06,24,13,14,23.90
2017,06,24,13,15,23.90
2017,06,24,13,16,23.90
2017,06,24,13,17,23.90
2017,06,24,13,18,23.90
2017,06,24,13,19,23.90
2017,06,24,13,20,24.10
2017,06,24,13,21,24.20
2017,06,24,13,22,24.30
2017,06,24,13,23,24.40
2017,06,24,13,24,24.50
2017,06,24,13,25,24.60
2017,06,24,13,26,24.70
2017,06,24,13,27,24.80
2017,06,24,13,28,24.90
2017,06,24,13,29,25.00
2017,06,24,13,30,25.10
2017,06,24,13,31,25.20
2017,06,24,13,32,25.20
2017,06,24,13,33,25.30
2017,06,24,13,34,25.30
2017,06,24,13,35,25.30
2017,06,24,13,36,25.30
2017,06,24,13,37,25.30
2017,06,24,13,38,25.20
2017,06,24,13,39,25.20
2017,06,24,13,40,25.20
2017,06,24,13,41,25.20
2017,06,24,13,42,25.20
2017,06,24,13,43,25.20
2017,06,24,13,44,25.30
2017,06,24,13,45,25.30
2017,06,24,13,46,25.30
2017,06,24,13,47,25.40
2017,06,24,13,48,25.50
2017,06,24,13,49,25.50
2017,06,24,13,50,25.50
2017,06,24,13,51,25.60
2017,06,24,13,52,25.60
2017,06,24,13,53,25.70
2017,06,24,13,54,25.70
2017,06,24,13,55,25.80
2017,06,24,13,56,25.80
2017,06,24,13,57,25.80
2017,06,24,13,58,25.80
2017,06,24,13,59,25.90
2017,06,24,14,00,25.90
2017,06,24,14,01,25.90
2017,06,24,14,02,25.90
2017,06,24,14,03,25.90
2017,06,24,14,04,25.90
2017,06,24,14,05,25.90
2017,06,24,14,06,25.90
2017,06,24,14,07,25.80
2017,06,24,14,08,25.80
2017,06,24,14,09,25.80
2017,06,24,14,10,25.70
2017,06,24,14,11,25.60
2017,06,24,14,12,25.50
2017,06,24,14,13,25.50
2017,06,24,14,14,25.60
2017,06,24,14,15,25.60
2017,06,24,14,16,25.60
2017,06,24,14,17,25.60
2017,06,24,14,18,25.50
2017,06,24,14,19,25.50
2017,06,24,14,20,25.50
2017,06,24,14,21,25.50
2017,06,24,14,22,25.60
2017,06,24,14,23,25.60
2017,06,24,14,24,25.70
2017,06,24,14,25,25.70
2017,06,24,14,26,25.70
2017,06,24,14,27,25.70
2017,06,24,14,28,25.80
2017,06,24,14,29,25.90
2017,06,24,14,30,26.00
2017,06,24,14,31,26.10
2017,06,24,14,32,26.10
2017,06,24,14,33,26.20
2017,06,24,14,34,26.20
2017,06,24,14,35,26.30
2017,06,24,14,36,26.40
2017,06,24,14,37,26.40
2017,06,24,14,38,26.40
2017,06,24,14,39,26.40
2017,06,24,14,40,26.30
2017,06,24,14,41,26.30
2017,06,24,14,42,26.20
2017,06,24,14,43,26.20
2017,06,24,14,44,26.20
2017,06,24,14,45,26.20
2017,06,24,14,46,26.20
2017,06,24,14,47,26.30
2017,06,24,14,48,26.30
2017,06,24,14,49,26.30
2017,06,24,14,50,26.30
2017,06,24,14,51,26.30
2017,06,24,14,52,26.30
2017,06,24,14,53,26.30
2017,06,24,14,54,26.30
2017,06,24,14,55,26.30
2017,06,24,14,56,26.30
2017,06,24,14,57,26.30
2017,06,24,14,58,26.40
2017,06,24,14,59,26.40
2017,06,24,15,00,26.50
2017,06,24,15,01,26.60
2017,06,24,15,02,26.70
2017,06,24,15,03,26.70
2017,06,24,15,04,26.80
2017,06,24,15,05,26.80
2017,06,24,15,06,26.90
2017,06,24,15,07,27.00
2017,06,24,15,08,27.10
2017,06,24,15,09,27.10
2017,06,24,15,10,27.20
2017,06,24,15,11,27.30
2017,06,24,15,12,27.40
2017,06,24,15,13,27.50
2017,06,24,15,14,27.50
2017,06,24,15,15,27.60
2017,06,24,15,16,27.70
2017,06,24,15,17,27.70
2017,06,24,15,18,27.80
2017,06,24,15,19,27.80
2017,06,24,15,20,27.80
2017,06,24,15,21,27.80
2017,06,24,15,22,27.90
2017,06,24,15,23,27.90
2017,06,24,15,24,27.90
2017,06,24,15,25,28.00
2017,06,24,15,26,28.00
2017,06,24,15,27,28.10
2017,06,24,15,28,28.10
2017,06,24,15,29,28.20
2017,06,24,15,30,28.10
2017,06,24,15,31,28.10
2017,06,24,15,32,27.90
2017,06,24,15,33,27.80
2017,06,24,15,34,27.70
2017,06,24,15,35,27.70
2017,06,24,15,36,27.60
2017,06,24,15,37,27.60
2017,06,24,15,38,27.50
2017,06,24,15,39,27.40
2017,06,24,15,40,27.40
2017,06,24,15,41,27.40
2017,06,24,15,42,27.30
2017,06,24,15,43,27.20
2017,06,24,15,44,27.10
2017,06,24,15,45,27.20
2017,06,24,15,46,27.20
2017,06,24,15,47,27.20
2017,06,24,15,48,27.30
2017,06,24,15,49,27.30
2017,06,24,15,50,27.40
2017,06,24,15,51,27.40
2017,06,24,15,52,27.50
2017,06,24,15,53,27.70
2017,06,24,15,54,27.80
2017,06,24,15,55,27.90
2017,06,24,15,56,28.00
2017,06,24,15,57,28.10
2017,06,24,15,58,28.10
2017,06,24,15,59,28.20
2017,06,24,16,00,28.20
2017,06,24,16,01,28.20
2017,06,24,16,02,28.20
2017,06,24,16,03,28.30
2017,06,24,16,04,28.30
2017,06,24,16,05,28.30
2017,06,24,16,06,28.30
2017,06,24,16,07,28.30
2017,06,24,16,08,28.30
2017,06,24,16,09,28.30
2017,06,24,16,10,28.30
2017,06,24,16,11,28.30
2017,06,24,16,12,28.40
2017,06,24,16,13,28.40
2017,06,24,16,14,28.50
2017,06,24,16,15,28.60
2017,06,24,16,16,28.60
2017,06,24,16,17,28.60
2017,06,24,16,18,28.70
2017,06,24,16,19,28.70
2017,06,24,16,20,28.70
2017,06,24,16,21,28.70
2017,06,24,16,22,28.70
2017,06,24,16,23,28.70
2017,06,24,16,24,28.60
2017,06,24,16,25,28.60
2017,06,24,16,26,28.60
2017,06,24,16,27,28.60
2017,06,24,16,28,28.60
2017,06,24,16,29,28.60
2017,06,24,16,30,28.50
2017,06,24,16,31,28.40
2017,06,24,16,32,28.40
2017,06,24,16,33,28.40
2017,06,24,16,34,28.40
2017,06,24,16,35,28.40
2017,06,24,16,36,28.50
2017,06,24,16,37,28.50
2017,06,24,16,38,28.60
2017,06,24,16,39,28.60
2017,06,24,16,40,28.70
2017,06,24,16,41,28.70
2017,06,24,16,42,28.80
2017,06,24,16,43,28.90
2017,06,24,16,44,28.90
2017,06,24,16,45,29.00
2017,06,24,16,46,29.00
2017,06,24,16,47,29.10
2017,06,24,16,48,29.10
2017,06,24,16,49,29.10
2017,06,24,16,50,29.10
2017,06,24,16,51,29.10
2017,06,24,16,52,29.10
2017,06,24,16,53,29.00
2017,06,24,16,54,29.00
2017,06,24,16,55,29.00
2017,06,24,16,56,29.00
2017,06,24,16,57,29.00
2017,06,24,16,58,29.00
2017,06,24,16,59,28.90
2017,06,24,17,00,28.90
2017,06,24,17,01,28.80
2017,06,24,17,02,28.80
2017,06,24,17,03,28.80
2017,06,24,17,04,28.80
2017,06,24,17,05,28.80
2017,06,24,17,06,28.80
2017,06,24,17,07,28.90
2017,06,24,17,08,28.90
2017,06,24,17,09,28.90
2017,06,24,17,10,29.00
2017,06,24,17,11,29.00
2017,06,24,17,12,29.10
2017,06,24,17,13,29.10
2017,06,24,17,14,29.10
2017,06,24,17,15,29.10
2017,06,24,17,16,29.10
2017,06,24,17,17,29.10
2017,06,24,17,18,29.10
2017,06,24,17,19,29.10